Theta_e
300 300 300 300 301 302 302 303 303 303 303 304 305 305 307 308 308 305 300 306 302 296 297 301 303 299 299 297 292 296 298 300 299 294 292 292 292 295 292 294 293 291 289 286 288 285 287 306 304 296 299 301 302 301
300 300 300 300 301 302 303 304 304 304 304 304 304 305 306 307 308 307 298 304 307 300 298 303 306 308 306 304 299 299 299 301 302 297 296 295 293 294 292 286 298 289 295 290 293 292 301 304 302 302 301 299 300 299
300 299 300 300 301 302 303 303 303 303 304 305 305 305 305 307 308 306 301 302 303 300 300 302 301 308 311 309 309 298 303 304 303 306 299 296 292 296 291 291 295 300 303 297 296 299 300 302 303 303 302 300 301 300
299 299 299 300 301 302 302 303 303 303 304 305 305 305 306 307 307 306 300 303 304 300 294 297 303 305 311 311 309 308 305 307 308 304 298 296 292 299 294 296 295 299 300 297 297 300 299 301 301 301 302 301 299 298
299 299 299 300 301 301 302 303 303 304 304 304 305 305 305 306 306 305 304 306 308 299 293 293 301 306 308 308 306 306 305 304 302 298 296 294 297 297 296 297 295 299 297 295 293 301 298 298 300 302 299 297 296 295
298 299 299 299 300 301 302 303 304 304 304 305 306 306 306 306 306 303 300 307 305 305 298 289 303 303 305 306 305 303 303 302 302 299 296 298 300 296 290 290 297 302 303 302 298 302 300 301 301 301 298 295 296 295
298 298 299 299 300 300 302 304 304 305 305 305 306 306 306 306 303 300 297 301 304 306 298 292 295 301 305 304 303 302 303 300 301 297 296 295 295 297 294 290 297 301 303 302 303 302 298 299 296 298 297 297 299 297
298 298 298 299 299 301 303 304 305 305 306 306 306 306 305 306 305 301 307 307 306 301 302 291 293 296 304 298 296 301 298 299 298 297 298 296 295 296 290 296 300 301 302 303 303 302 299 299 297 297 297 296 294 293
298 298 298 299 299 300 302 304 304 305 306 305 305 306 306 305 301 303 309 308 307 302 294 294 287 289 302 299 299 298 299 292 298 295 294 297 293 290 297 297 299 301 299 300 301 300 299 296 295 295 295 294 293 292
298 298 298 299 299 301 302 304 304 305 305 306 306 303 296 302 308 307 305 301 299 301 301 294 300 294 299 298 296 294 295 291 289 292 298 293 293 299 302 302 301 302 302 300 297 296 297 294 294 294 293 294 294 293
297 298 298 299 300 301 302 303 305 305 306 304 298 296 302 308 303 301 295 294 295 292 297 297 298 295 302 294 293 298 292 292 286 290 291 289 289 296 301 301 302 302 302 301 298 296 296 295 294 294 294 295 294 294
297 298 298 299 299 300 302 303 304 303 301 299 298 302 303 300 297 292 290 293 292 289 295 294 296 299 299 301 295 295 291 293 287 295 290 286 294 299 300 301 303 301 301 298 297 296 296 296 296 295 294 294 293 293
297 298 298 299 299 300 302 302 303 304 304 305 299 295 295 293 284 287 285 289 290 295 296 296 294 297 298 298 296 295 290 288 295 289 287 292 297 300 300 301 300 301 299 297 296 296 296 296 298 296 294 295 294 293
297 298 298 298 299 301 302 302 303 303 301 296 291 284 288 288 290 292 291 290 295 298 298 297 296 294 297 294 295 291 294 293 287 284 287 294 298 300 302 302 300 299 297 296 296 295 295 296 295 296 295 294 293 292
298 298 299 298 300 301 302 302 303 304 299 292 291 284 289 295 296 296 297 296 299 300 299 297 297 296 294 293 295 293 290 286 288 287 292 297 299 300 300 300 300 299 296 295 295 295 295 295 294 294 294 293 293 293
298 298 300 300 301 301 302 304 305 303 299 294 292 288 293 293 293 294 294 295 302 300 301 299 295 291 292 293 291 290 288 284 289 295 299 299 299 300 299 300 301 300 298 296 295 295 295 295 294 293 294 294 293 293
297 296 300 300 300 301 302 301 300 296 293 291 290 295 295 292 290 292 295 295 302 299 294 294 290 290 295 290 290 292 289 294 297 299 301 300 300 299 301 301 303 300 299 297 296 296 295 295 295 294 291 293 293 293
295 299 300 298 299 301 303 301 296 293 289 292 291 295 295 292 291 293 297 298 298 297 295 292 297 292 290 289 289 296 298 300 301 301 301 302 302 301 302 300 300 300 299 298 296 296 295 295 293 292 292 293 292 292
296 298 298 298 298 297 295 296 297 289 291 295 296 298 297 297 296 297 298 300 302 304 300 298 294 292 293 297 298 298 300 300 299 300 301 302 302 301 300 300 300 300 298 297 296 295 295 295 294 293 292 291 289 290
298 298 298 299 299 296 293 294 300 293 290 295 296 296 297 299 302 301 301 301 301 301 297 295 295 298 298 301 303 303 303 303 301 298 298 300 301 301 299 299 298 300 299 298 296 296 295 293 294 293 292 292 291 289
298 300 300 300 299 297 295 294 293 295 294 293 296 296 296 302 300 299 300 304 299 297 296 297 296 302 304 304 305 305 303 304 300 299 297 296 299 300 300 299 299 297 296 296 295 292 294 294 293 293 292 293 293 292
299 300 299 302 296 297 295 298 295 298 294 294 295 296 295 294 296 298 302 299 298 299 301 301 301 303 303 303 304 303 303 304 303 299 297 297 297 298 298 298 298 296 296 296 296 295 296 296 296 296 294 292 293 292
298 298 297 296 292 291 289 298 293 295 290 293 295 292 293 295 298 302 296 298 300 303 303 303 304 306 304 306 306 305 304 303 300 298 297 298 299 300 300 299 299 298 296 297 298 298 296 292 292 296 294 294 294 291
297 294 291 290 291 287 295 292 295 294 294 292 290 288 292 295 299 295 293 297 300 302 302 302 303 303 303 304 303 302 303 302 299 298 299 299 296 297 298 298 300 300 300 299 299 298 298 296 294 295 296 296 295 294
288 287 289 283 292 290 288 289 290 290 288 290 289 290 293 297 292 292 292 296 299 299 300 301 302 301 299 301 302 303 305 301 298 297 300 301 299 299 298 298 298 299 300 298 297 298 297 298 298 297 297 295 294 294
283 288 286 289 289 288 289 287 288 289 290 290 291 295 296 293 290 289 292 293 294 295 295 296 296 299 300 302 301 302 302 303 302 300 301 301 299 297 296 295 294 295 299 299 298 297 297 298 297 295 292 290 287 292
283 286 292 295 294 293 291 294 295 292 289 289 291 291 289 285 287 289 294 295 294 296 297 297 296 297 298 300 302 305 307 306 304 300 300 299 300 300 299 296 294 295 298 299 298 298 296 296 295 295 293 292 291 290
288 291 289 292 292 294 290 291 291 290 290 294 293 288 287 287 287 292 294 296 296 296 296 297 299 298 299 301 301 303 305 304 301 298 297 297 297 297 296 294 292 287 291 291 296 297 296 295 293 293 291 288 287 288
288 292 292 289 292 293 293 292 292 294 296 295 291 291 292 293 295 295 295 296 295 295 295 295 296 299 299 301 300 304 305 301 298 293 292 291 291 293 296 296 295 294 291 288 284 286 289 290 291 290 290 288 288 287
290 294 290 291 290 290 295 297 295 297 297 296 296 295 295 296 296 297 295 294 293 293 295 297 298 296 297 298 297 301 303 301 301 297 293 292 293 296 296 295 295 293 291 289 287 287 284 287 286 289 289 288 287 285
295 294 292 292 291 296 297 298 298 297 296 294 294 291 292 293 295 296 294 292 294 296 296 295 296 296 297 298 297 296 296 300 301 301 299 298 298 298 297 297 297 295 293 291 290 289 288 288 287 287 286 286 285 284
293 292 291 288 292 296 297 295 295 294 293 292 291 292 291 291 289 291 291 292 295 295 292 295 297 297 300 300 301 301 292 301 300 298 298 298 297 298 297 296 295 294 291 290 289 289 289 288 287 286 285 284 284 283
291 292 293 292 293 292 294 294 291 290 291 291 291 292 292 290 287 290 292 293 292 293 295 296 296 298 298 295 293 290 289 288 286 285 286 286 287 292 294 293 292 291 290 288 287 287 287 287 285 284 283 282 282 281
Wind_Speed
15 16 17 18 19 20 21 22 21 20 21 23 23 24 23 21 20 7 8 5 2 4 11 8 6 4 3 4 3 8 6 4 1 0 3 1 4 4 6 3 7 5 5 3 3 6 4 9 8 6 5 6 13 12
14 15 16 17 19 18 19 20 20 20 20 21 22 23 22 21 19 12 5 7 4 4 8 14 4 4 4 4 3 4 3 5 3 2 4 1 4 5 6 5 5 3 6 4 5 5 7 12 11 7 10 9 8 10
13 15 16 17 18 18 18 19 20 21 21 21 21 21 22 19 18 10 6 7 3 4 7 4 2 2 7 2 1 3 5 6 7 1 2 1 8 4 4 4 6 7 5 6 10 8 12 10 12 13 12 11 10 10
13 14 15 17 18 18 19 20 21 22 22 21 20 21 20 19 18 14 5 7 3 4 3 5 12 7 10 3 8 11 11 8 7 2 3 4 4 4 3 4 6 3 6 6 12 13 15 14 13 12 11 14 12 9
13 14 15 17 18 19 19 20 21 21 22 23 22 22 20 20 19 11 7 5 3 1 2 4 12 8 9 11 11 4 6 5 3 5 5 4 4 6 4 6 7 3 1 7 4 6 13 9 9 13 13 11 8 9
12 14 15 16 18 19 20 22 22 22 22 23 23 22 21 18 16 5 1 2 6 4 3 3 5 6 7 5 3 5 6 5 3 3 2 3 2 3 4 5 5 12 15 13 8 15 17 14 13 12 11 9 7 10
12 13 15 16 18 19 21 22 22 22 23 23 22 20 18 15 5 2 2 5 10 4 2 3 4 3 4 5 2 3 5 3 3 2 4 3 3 4 4 5 7 11 14 15 15 16 14 10 8 9 9 7 11 11
12 13 14 16 18 20 21 22 23 23 24 21 20 19 18 16 9 4 2 2 3 4 2 1 4 1 3 3 2 4 4 4 6 1 4 3 4 2 4 5 10 13 10 13 11 13 12 13 11 9 8 9 11 9
11 12 13 15 17 19 20 22 22 23 22 21 21 21 5 2 1 2 11 9 4 3 3 3 1 2 2 1 1 2 2 3 3 2 2 3 2 4 6 8 7 10 8 10 13 11 10 14 11 9 9 9 9 8
12 12 13 15 17 18 20 21 23 23 25 20 5 2 2 1 6 9 2 3 3 4 3 3 2 2 3 1 1 1 2 1 2 3 4 4 3 6 11 11 9 12 12 9 7 6 14 13 11 9 9 8 8 7
12 12 14 15 16 18 19 19 20 21 13 2 4 2 4 6 2 2 3 2 3 2 3 2 2 2 3 2 2 1 2 0 2 4 3 1 2 5 9 9 8 8 9 13 13 13 12 12 10 8 8 10 9 8
12 13 13 15 16 17 17 17 17 9 4 5 4 6 4 2 3 3 2 2 2 2 1 2 1 1 1 1 1 4 1 2 2 3 3 3 3 7 10 8 8 8 9 14 13 12 12 11 9 8 8 9 8 7
12 13 14 15 15 17 14 14 15 13 12 2 3 3 2 1 2 3 2 1 4 3 1 1 1 3 1 2 1 2 3 2 5 2 3 3 8 8 7 7 8 7 14 15 14 12 10 9 9 8 8 8 8 8
11 12 15 15 15 15 13 14 13 8 3 2 2 4 4 4 2 4 2 2 6 4 5 2 1 2 1 1 1 2 0 4 3 3 1 5 10 9 8 8 7 11 12 13 12 12 11 8 8 8 7 7 7 8
12 14 15 16 10 11 14 13 11 3 2 2 2 4 3 3 3 3 3 3 2 4 3 2 2 1 1 3 3 1 1 3 3 1 4 8 9 7 6 8 6 10 9 9 9 10 11 9 7 7 7 7 7 7
13 18 2 3 7 12 12 10 3 2 3 2 3 4 3 4 3 4 3 4 4 2 2 1 2 2 4 3 3 3 1 1 2 3 6 9 10 7 6 6 6 9 9 8 9 10 11 10 7 7 7 7 7 8
13 4 5 4 9 13 1 1 1 4 2 2 4 5 1 3 5 4 2 5 4 3 1 1 4 6 4 2 3 2 2 3 4 5 5 7 9 8 6 4 4 10 10 10 10 9 9 9 8 7 7 6 7 7
5 1 4 11 10 6 1 2 1 2 5 6 5 2 2 3 3 4 3 5 3 1 3 3 3 4 2 3 1 2 3 4 5 5 4 6 7 6 4 8 8 10 8 9 9 7 7 7 7 5 7 6 5 5
9 10 13 12 6 3 2 3 2 3 5 5 5 4 3 3 6 6 4 6 5 4 3 3 2 2 1 2 3 4 6 5 5 5 5 6 6 5 7 10 7 7 9 8 7 5 4 5 5 5 5 6 5 4
16 16 16 12 5 2 2 3 3 3 4 3 5 4 4 3 2 5 5 5 4 2 2 3 3 1 4 3 3 3 4 5 7 7 5 4 3 8 8 7 5 7 7 7 6 7 5 4 4 5 5 6 6 4
6 2 5 7 5 4 3 2 2 3 3 4 5 5 2 2 0 1 1 2 1 2 2 3 6 1 5 4 4 5 4 4 4 5 5 4 4 5 5 5 6 4 5 5 5 4 5 5 5 5 5 4 5 5
1 4 2 5 3 4 5 4 3 2 3 4 6 4 2 3 1 1 1 1 1 2 1 4 3 4 5 6 6 6 5 6 5 4 5 9 6 7 5 4 4 5 5 5 5 5 4 5 6 5 6 5 6 5
6 2 2 3 3 2 6 3 4 4 4 2 2 3 3 2 4 5 4 3 2 4 4 2 5 5 5 5 9 6 5 4 4 4 4 4 4 5 4 4 5 3 5 4 5 6 5 6 4 6 5 5 6 4
1 2 3 4 6 4 3 4 3 3 3 2 1 3 2 2 3 2 2 2 2 5 5 5 5 3 3 5 1 4 5 4 4 4 4 4 4 3 5 5 5 4 5 5 6 5 5 3 5 5 5 6 8 6
2 4 4 5 5 4 4 3 3 3 3 4 3 3 1 1 2 2 2 2 6 6 6 6 5 4 3 3 1 2 1 1 4 4 2 5 5 6 7 7 5 4 4 4 4 5 6 4 4 5 6 5 5 3
5 5 6 4 3 4 4 3 4 5 2 3 0 2 2 1 3 2 3 4 4 5 6 6 5 5 4 5 3 2 2 1 1 4 3 5 6 8 7 7 5 4 4 4 4 5 6 6 6 9 7 6 4 5
4 5 6 5 4 4 3 3 5 2 1 1 2 1 2 1 2 2 2 2 1 2 2 3 3 4 4 4 4 6 3 6 5 8 7 8 5 7 8 8 7 3 5 5 5 5 6 5 5 6 8 7 6 6
5 4 4 4 6 3 2 3 3 4 3 2 2 1 0 0 1 2 2 2 0 2 3 4 3 3 4 4 3 5 6 5 3 11 10 10 9 9 11 9 8 11 8 7 6 6 6 6 6 7 9 8 6 6
4 4 5 6 4 4 3 1 4 1 1 1 1 1 3 2 2 1 1 0 1 3 2 3 3 3 3 3 3 2 5 3 4 13 13 7 7 5 5 7 7 6 6 7 9 7 9 8 7 7 8 7 7 6
6 5 3 5 4 1 3 3 4 4 3 3 2 1 3 3 3 2 1 0 1 2 3 4 1 1 2 2 1 5 6 8 8 5 6 8 6 6 6 7 6 6 5 6 5 4 5 6 5 5 6 7 8 8
1 4 3 4 1 5 5 5 4 4 2 2 2 2 2 2 2 1 0 1 4 2 4 2 2 3 2 1 3 3 4 4 2 3 9 8 7 5 5 5 5 6 6 7 6 5 4 4 7 8 7 7 9 9
3 3 1 2 3 3 3 1 2 2 3 1 2 2 2 0 1 1 1 3 1 1 1 3 1 3 5 4 3 5 8 6 6 8 11 8 7 6 6 5 4 4 5 6 5 6 10 9 7 7 8 11 10 10
5 6 6 3 4 4 4 3 2 2 2 1 3 3 2 2 1 1 0 0 2 3 2 6 7 6 6 7 5 6 9 8 9 10 12 10 7 6 5 4 4 4 9 11 11 10 10 11 10 12 12 12 10 9
Wind_Direction
321 324 326 329 329 330 332 331 330 329 328 331 333 332 334 337 338 338 286 274 310 278 285 260 11 340 11 332 336 313 314 35 225 173 94 35 94 205 104 107 116 115 107 143 74 104 149 286 31 82 162 66 79 66
317 322 324 325 327 328 327 328 333 328 326 326 328 327 331 333 340 346 298 322 317 242 269 294 285 245 144 181 275 296 274 336 350 5 14 18 95 63 126 122 77 77 141 149 132 139 108 78 109 93 80 87 68 72
313 319 320 323 326 324 326 329 329 328 327 326 325 324 327 330 336 346 299 296 320 275 295 290 218 173 123 62 211 345 307 337 317 273 273 293 75 64 59 69 88 25 104 118 90 113 110 103 79 77 80 81 69 62
309 314 319 322 324 323 323 322 322 321 323 323 321 321 322 325 327 333 296 293 270 280 310 313 334 301 141 179 248 235 261 302 267 289 23 50 84 74 181 115 97 164 91 100 103 109 83 77 87 89 75 69 59 47
306 311 317 319 320 322 321 320 317 316 317 318 319 319 320 321 319 310 268 274 58 268 304 274 298 271 249 188 258 286 291 297 311 7 37 30 45 30 9 55 35 21 168 127 134 125 110 117 94 80 77 74 57 64
302 309 315 318 320 322 320 318 316 315 315 317 316 315 317 314 321 294 7 100 24 348 292 339 259 293 311 275 292 328 328 335 345 38 63 68 55 74 94 88 72 58 65 90 103 99 96 94 87 78 80 76 52 78
299 309 314 317 319 321 318 319 317 314 311 312 312 310 307 306 301 287 319 320 325 306 259 295 308 248 271 306 331 360 326 327 16 2 27 86 23 27 37 100 117 93 89 101 105 109 99 90 95 85 84 64 82 74
301 309 311 316 320 319 319 320 319 318 314 310 306 308 302 293 269 282 149 295 329 266 243 345 280 258 2 308 25 338 343 358 354 354 4 75 353 29 79 111 106 112 103 94 95 99 112 107 96 92 79 71 75 70
297 303 310 314 317 318 319 320 322 320 317 312 307 300 286 229 299 273 309 306 233 264 315 144 301 292 208 254 333 11 340 33 298 340 28 55 16 32 123 119 110 111 111 117 116 120 121 108 100 89 83 73 80 71
297 307 312 314 316 319 320 323 325 323 315 312 295 304 323 13 310 298 133 194 198 214 226 255 316 321 22 87 286 123 338 298 58 324 20 72 22 65 73 78 90 100 108 110 118 133 113 106 102 93 93 89 89 77
297 308 313 313 316 317 323 325 329 329 305 343 354 323 319 307 311 236 280 218 215 263 231 157 77 19 351 55 330 143 207 81 86 277 92 100 129 99 91 86 84 100 96 84 89 78 82 102 108 101 89 88 82 78
301 307 312 309 311 316 323 330 337 334 355 306 284 282 270 276 275 306 269 283 250 278 333 20 122 161 319 291 24 310 207 156 128 140 112 156 153 116 120 111 96 86 96 99 95 92 89 90 91 91 90 93 89 80
298 305 305 302 309 314 314 324 329 314 298 227 215 261 288 260 314 246 238 109 314 354 59 159 91 9 271 279 305 275 254 110 120 131 202 145 128 116 112 115 111 102 100 99 96 91 85 84 91 98 99 94 96 87
300 305 297 299 304 301 312 320 322 322 291 276 306 296 237 208 266 33 152 165 261 304 321 342 137 228 344 290 228 246 107 134 203 183 197 142 131 140 147 147 147 121 116 119 120 117 110 105 97 82 84 92 92 94
302 300 293 291 275 298 310 312 304 280 262 275 266 256 246 28 284 306 326 300 308 288 308 303 286 198 164 264 234 193 202 218 203 157 143 142 142 135 130 124 132 124 121 122 126 124 120 108 99 99 99 105 100 91
307 300 223 210 301 302 307 305 241 201 240 241 234 264 283 308 320 13 359 292 305 283 258 257 283 242 229 204 231 206 274 107 203 85 117 123 133 111 113 123 136 133 130 121 112 114 114 111 110 114 107 104 111 114
298 234 207 317 326 306 299 253 221 213 253 249 245 221 331 285 272 277 272 274 347 307 174 241 233 224 214 223 171 88 181 134 98 107 108 122 126 132 149 164 132 110 107 111 108 106 117 129 142 125 120 136 138 138
256 176 48 357 343 297 149 233 239 257 250 236 244 189 159 200 257 262 228 243 259 241 64 278 278 246 9 22 53 112 91 82 99 106 105 118 122 138 139 110 105 111 115 112 115 121 122 129 128 142 161 160 110 116
290 309 308 309 315 290 267 189 219 247 252 268 243 201 182 231 222 227 253 252 243 228 255 229 241 102 180 127 128 133 129 132 127 122 123 110 111 124 108 117 108 110 113 124 131 138 105 97 126 147 131 104 95 61
282 277 271 265 253 242 234 226 193 253 277 289 281 224 195 210 212 195 211 223 228 246 250 18 357 45 120 122 115 111 103 126 134 133 132 142 156 113 117 126 130 119 122 114 113 120 128 120 89 93 93 120 119 111
300 231 249 187 195 232 275 242 234 242 285 279 295 297 249 116 291 40 146 195 271 251 40 102 269 319 73 80 87 117 132 130 120 138 153 148 141 122 118 117 136 146 142 153 154 138 160 134 149 136 147 138 130 148
277 281 268 203 235 218 233 224 249 204 247 278 292 274 237 147 281 243 323 197 312 307 128 148 199 125 79 67 86 100 117 126 143 110 117 110 134 147 152 176 177 158 154 164 149 149 148 146 153 151 142 138 132 109
265 221 222 236 258 224 254 228 232 212 228 232 274 259 246 128 194 160 201 189 141 185 215 112 84 55 80 94 124 125 148 149 144 131 129 147 156 153 150 153 134 145 106 90 102 97 109 129 117 124 148 141 127 141
246 278 263 226 197 247 235 210 226 226 221 209 226 274 309 77 344 283 109 92 212 83 62 50 84 58 28 80 27 166 184 182 145 137 182 150 125 126 119 103 85 99 116 116 118 135 130 110 133 152 154 125 163 178
162 232 211 249 249 234 215 219 230 207 235 175 225 203 219 20 229 234 83 58 47 48 32 20 39 29 50 103 255 243 251 197 142 170 197 116 110 90 84 87 85 86 99 97 119 130 135 155 102 77 84 80 93 169
219 224 193 222 228 214 218 220 208 195 233 191 252 56 8 294 259 80 60 25 33 30 16 10 350 342 52 25 360 327 277 338 193 113 143 131 130 127 120 109 88 33 29 81 96 105 102 94 108 122 117 114 80 53
253 250 221 195 237 260 243 158 191 160 237 97 80 37 80 314 60 81 125 60 35 33 335 321 320 319 336 349 0 330 18 26 316 87 52 50 77 124 126 122 109 66 39 55 55 74 110 116 108 101 112 94 73 62
254 250 238 250 231 239 230 151 226 178 156 114 140 134 93 145 132 123 93 120 29 306 293 285 275 279 294 331 339 314 84 60 308 92 84 65 61 70 87 88 84 73 63 37 45 49 61 79 85 87 97 96 78 51
243 266 302 267 244 250 224 142 142 70 96 182 206 89 95 84 108 210 78 15 257 264 280 287 290 305 283 276 274 209 137 109 120 113 102 103 95 76 88 93 92 90 80 71 50 57 63 72 79 83 101 116 110 86
244 187 238 264 239 238 68 63 103 82 48 33 345 181 108 102 105 99 270 256 251 261 274 280 219 194 298 319 339 162 150 153 208 130 127 113 128 142 124 123 120 112 102 98 99 89 75 88 83 69 63 64 104 88
286 209 219 214 305 101 115 103 108 102 92 68 33 327 57 126 132 94 6 317 290 292 283 248 202 190 201 110 78 36 75 60 91 142 115 117 117 118 121 121 124 138 152 159 161 161 162 119 94 89 89 88 86 95
210 227 216 258 110 119 126 145 131 139 145 163 151 161 124 220 227 117 17 315 311 278 322 344 81 144 165 196 193 199 225 154 155 129 117 119 112 109 101 93 90 98 100 91 87 90 103 105 105 100 92 84 72 64
218 235 213 268 178 198 166 164 152 151 194 220 172 181 153 182 189 131 334 302 291 301 342 49 41 85 86 88 91 79 69 75 71 74 78 76 81 108 123 121 129 118 89 73 58 52 63 83 94 98 94 90 85 77